M I D A S
Marine Information and Data Acquisition System
Tripno 1621 of the Zeeleeuw from 2008-12-17 07:56:55 to 2008-12-17 14:39:23
Back to CruiseResearch ActivitiesStationsMapUnderway DataData graphs

EquipmentUnitsComments
TimeDGPSUTC
LatitudeDGPSDM.mWGS84
LongitudeDGPSDM.mWGS84
SpeedMeteo Stationm/sRelative wind speed
DirectionMeteo StationdegRelative wind direction
TemperatureMeteo Stationdeg CelciusAir temperature
PressureMeteo StationPaAtmospheric pressure
HumidityMeteo Station%Relative humidity
Missing or incorrect values are displayed as -999
Metereological data collected by the RV Zeeleeuw from 2008-12-17 08:00:30 to 2008-12-17 14:43:06
Time Latitude Longitude Speed Direction Temperature Pressure Humidity
2008-12-17 08:01 51°13.68 2°55.876 2.8 18 3.7 101120 94
2008-12-17 08:02 51°13.692 2°55.802 2.7 20 3.6 101130 96
2008-12-17 08:03 51°13.697 2°55.749 1.9 23 3.6 101120 95
2008-12-17 08:04 51°13.698 2°55.723 1.3 26 3.7 101120 96
2008-12-17 08:05 51°13.701 2°55.711 2.5 22 3.8 101130 96
2008-12-17 08:06 51°13.695 2°55.698 2.6 25 3.8 101130 98
2008-12-17 08:07 51°13.692 2°55.691 2.1 20 3.8 101130 96
2008-12-17 08:08 51°13.694 2°55.689 2 26 3.7 101130 97
2008-12-17 08:09 51°13.697 2°55.687 1.5 25 3.7 101130 98
2008-12-17 08:10 51°13.699 2°55.684 1.9 20 3.8 101140 97
2008-12-17 08:11 51°13.701 2°55.679 0.7 263 3.8 101140 98
2008-12-17 08:12 51°13.715 2°55.674 1.6 315 3.8 101140 98
2008-12-17 08:13 51°13.812 2°55.646 3.6 331 3.9 101140 99
2008-12-17 08:14 51°13.937 2°55.582 4 331 4 101140 100
2008-12-17 08:15 51°14.034 2°55.509 4.2 26 4.1 101140 99
2008-12-17 08:16 51°14.147 2°55.407 4.4 320 4.2 101150 99
2008-12-17 08:17 51°14.278 2°55.247 5.6 322 4.3 101140 100
2008-12-17 08:18 51°14.407 2°55.021 6.8 18 4.7 101140 99
2008-12-17 08:19 51°14.544 2°54.778 7.4 21 4.8 101130 99
2008-12-17 08:20 51°14.701 2°54.567 6.2 27 4.7 101130 100
2008-12-17 08:21 51°14.862 2°54.365 5.8 24 4.8 101140 100
2008-12-17 08:22 51°15.021 2°54.167 5.9 316 4.8 101140 100
2008-12-17 08:23 51°15.178 2°53.962 5.5 316 4.7 101140 100
2008-12-17 08:24 51°15.337 2°53.759 6.3 316 4.8 101140 100
2008-12-17 08:25 51°15.504 2°53.569 6 21 4.9 101150 100
2008-12-17 08:26 51°15.671 2°53.374 7 316 4.9 101140 100
2008-12-17 08:27 51°15.834 2°53.171 6 320 5.1 101140 100
2008-12-17 08:28 51°15.995 2°52.965 7.4 318 5.2 101140 100
2008-12-17 08:29 51°16.156 2°52.76 5.9 318 5.4 101140 100
2008-12-17 08:30 51°16.319 2°52.554 6.4 318 5.6 101150 100
2008-12-17 08:31 51°16.483 2°52.349 7.1 324 5.7 101140 100
2008-12-17 08:32 51°16.649 2°52.149 6.9 331 5.8 101140 100
2008-12-17 08:33 51°16.827 2°51.988 8.3 331 6.1 101130 100
2008-12-17 08:34 51°17.012 2°51.854 9.9 330 6.3 101130 100
2008-12-17 08:35 51°17.198 2°51.723 9.8 329 6.5 101130 100
2008-12-17 08:36 51°17.389 2°51.626 10.8 326 6.6 101130 100
2008-12-17 08:37 51°17.585 2°51.597 10 324 6.7 101130 100
2008-12-17 08:38 51°17.782 2°51.581 11 323 6.8 101130 100
2008-12-17 08:39 51°17.98 2°51.569 10.6 323 6.8 101130 100
2008-12-17 08:40 51°18.178 2°51.559 10.2 324 6.8 101130 100
2008-12-17 08:41 51°18.374 2°51.546 12 323 6.9 101130 100
2008-12-17 08:42 51°18.571 2°51.525 11.9 323 6.9 101130 100
2008-12-17 08:43 51°18.768 2°51.499 10.6 323 6.9 101120 100
2008-12-17 08:44 51°18.966 2°51.489 10.2 322 6.9 101130 100
2008-12-17 08:45 51°19.164 2°51.477 12 322 6.9 101130 100
2008-12-17 08:46 51°19.363 2°51.465 11.7 322 7 101130 100
2008-12-17 08:47 51°19.564 2°51.453 11.7 322 7 101140 100
2008-12-17 08:48 51°19.763 2°51.441 9.8 323 7 101140 100
2008-12-17 08:49 51°19.962 2°51.415 10.2 321 7 101140 100
2008-12-17 08:50 51°20.16 2°51.389 12.4 321 7 101140 100
2008-12-17 08:51 51°20.358 2°51.377 11.8 321 7.1 101150 100
2008-12-17 08:52 51°20.556 2°51.365 11.3 320 7.1 101150 100
2008-12-17 08:53 51°20.753 2°51.345 12 321 7.1 101150 100
2008-12-17 08:54 51°20.949 2°51.327 10.5 321 7.1 101150 100
2008-12-17 08:55 51°21.145 2°51.317 10.4 320 7.2 101150 100
2008-12-17 08:56 51°21.341 2°51.313 12.8 321 7.2 101150 100
2008-12-17 08:57 51°21.536 2°51.3 13.1 320 7.2 101140 99
2008-12-17 08:58 51°21.732 2°51.302 12.8 318 7.3 101150 99
2008-12-17 08:59 51°21.931 2°51.3 12.3 317 7.3 101150 99
2008-12-17 09:00 51°22.129 2°51.288 14.2 318 7.3 101150 99
2008-12-17 09:01 51°22.328 2°51.273 11.7 320 7.3 101150 99
2008-12-17 09:02 51°22.526 2°51.257 14.8 319 7.4 101160 98
2008-12-17 09:03 51°22.725 2°51.243 13.1 318 7.4 101150 97
2008-12-17 09:04 51°22.924 2°51.228 14.3 318 7.4 101150 96
2008-12-17 09:05 51°23.124 2°51.213 12.8 318 7.5 101170 96
2008-12-17 09:06 51°23.32 2°51.198 15.3 319 7.5 101150 96
2008-12-17 09:07 51°23.515 2°51.182 12.8 319 7.5 101160 96
2008-12-17 09:08 51°23.712 2°51.16 13.1 317 7.5 101160 96
2008-12-17 09:09 51°23.908 2°51.138 15.5 317 7.5 101140 95
2008-12-17 09:10 51°24.104 2°51.127 12.4 317 7.6 101140 95
2008-12-17 09:11 51°24.299 2°51.114 15.1 316 7.6 101160 94
2008-12-17 09:12 51°24.49 2°51.1 12.6 318 7.6 101150 94
2008-12-17 09:13 51°24.683 2°51.085 15 318 7.5 101160 93
2008-12-17 09:14 51°24.877 2°51.061 14.6 317 7.5 101160 94
2008-12-17 09:15 51°25.071 2°51.029 13.2 320 7.5 101160 94
2008-12-17 09:16 51°25.264 2°50.994 11.7 319 7.5 101160 92
2008-12-17 09:17 51°25.457 2°50.965 14.8 319 7.5 101170 93
2008-12-17 09:18 51°25.649 2°50.933 13.9 320 7.5 101170 92
2008-12-17 09:19 51°25.843 2°50.894 14.7 320 7.5 101160 92
2008-12-17 09:20 51°26.037 2°50.867 15.7 319 7.5 101170 90
2008-12-17 09:21 51°26.233 2°50.843 13.5 320 7.6 101170 89
2008-12-17 09:22 51°26.43 2°50.818 15.7 318 7.6 101160 88
2008-12-17 09:23 51°26.627 2°50.797 13.2 321 7.6 101170 88
2008-12-17 09:24 51°26.825 2°50.777 14.1 322 7.6 101160 88
2008-12-17 09:25 51°27.018 2°50.753 16 318 7.6 101160 88
2008-12-17 09:26 51°27.211 2°50.735 14.4 321 7.7 101180 88
2008-12-17 09:27 51°27.403 2°50.714 14.1 320 7.7 101170 88
2008-12-17 09:28 51°27.596 2°50.693 13.1 319 7.7 101170 87
2008-12-17 09:29 51°27.789 2°50.666 15.3 319 7.7 101170 88
2008-12-17 09:30 51°27.982 2°50.636 14.4 321 7.7 101170 87
2008-12-17 09:31 51°28.175 2°50.609 15.4 319 7.7 101170 86
2008-12-17 09:32 51°28.365 2°50.588 13.6 317 7.8 101180 87
2008-12-17 09:33 51°28.552 2°50.559 16 316 7.8 101170 86
2008-12-17 09:34 51°28.741 2°50.529 15.6 320 7.8 101160 87
2008-12-17 09:35 51°28.931 2°50.505 16.7 318 7.8 101170 87
2008-12-17 09:36 51°29.115 2°50.542 13.9 25 7.8 101150 87
2008-12-17 09:37 51°29.25 2°50.737 10.6 24 7.8 101180 88
2008-12-17 09:38 51°29.368 2°50.964 12.7 20 7.8 101180 88
2008-12-17 09:39 51°29.491 2°51.185 10.9 24 7.8 101190 88
2008-12-17 09:40 51°29.619 2°51.401 11.4 24 7.8 101180 87
2008-12-17 09:41 51°29.714 2°51.654 11.2 247 7.8 101180 87
2008-12-17 09:42 51°29.794 2°51.923 12 25 7.8 101190 87
2008-12-17 09:43 51°29.883 2°52.188 13.1 25 7.8 101190 87
2008-12-17 09:44 51°29.97 2°52.451 12.7 24 7.8 101200 86
2008-12-17 09:45 51°30.06 2°52.711 14.2 24 7.8 101200 86
2008-12-17 09:46 51°30.152 2°52.969 9.8 24 7.8 101190 87
2008-12-17 09:47 51°30.233 2°53.235 8.9 24 7.8 101200 87
2008-12-17 09:48 51°30.312 2°53.504 9.2 27 7.8 101190 87
2008-12-17 09:49 51°30.39 2°53.775 11.8 244 7.8 101200 88
2008-12-17 09:50 51°30.469 2°54.042 11.9 24 7.8 101200 87
2008-12-17 09:51 51°30.548 2°54.308 11.3 22 7.7 101190 87
2008-12-17 09:52 51°30.623 2°54.578 9.3 26 7.7 101200 88
2008-12-17 09:53 51°30.681 2°54.858 11.4 24 7.7 101200 89
2008-12-17 09:54 51°30.741 2°55.14 11 26 7.7 101200 89
2008-12-17 09:55 51°30.801 2°55.42 11.3 20 7.7 101200 88
2008-12-17 09:56 51°30.859 2°55.701 9.8 244 7.7 101200 88
2008-12-17 09:57 51°30.919 2°55.981 11.8 19 7.7 101200 87
2008-12-17 09:58 51°30.976 2°56.261 11.3 23 7.7 101200 88
2008-12-17 09:59 51°31.036 2°56.539 9.9 23 7.7 101210 88
2008-12-17 10:00 51°31.111 2°56.807 12 20 7.7 101190 89
2008-12-17 10:01 51°31.219 2°57.039 11.2 25 7.7 101190 88
2008-12-17 10:02 51°31.353 2°57.235 10.8 21 7.6 101180 89
2008-12-17 10:03 51°31.488 2°57.43 12.2 21 7.6 101180 88
2008-12-17 10:04 51°31.624 2°57.626 13.5 21 7.6 101180 88
2008-12-17 10:05 51°31.758 2°57.824 14.5 23 7.6 101180 88
2008-12-17 10:06 51°31.893 2°58.02 12.3 21 7.6 101180 88
2008-12-17 10:07 51°32.028 2°58.217 12 22 7.6 101170 89
2008-12-17 10:08 51°32.166 2°58.404 11.1 25 7.6 101170 88
2008-12-17 10:09 51°32.301 2°58.598 12.2 23 7.6 101170 88
2008-12-17 10:10 51°32.434 2°58.787 11.8 24 7.5 101180 89
2008-12-17 10:11 51°32.563 2°58.994 12.3 22 7.5 101180 89
2008-12-17 10:12 51°32.722 2°59.102 11.7 324 7.5 101180 89
2008-12-17 10:13 51°32.884 2°58.97 15.4 337 7.5 101190 89
2008-12-17 10:14 51°32.981 2°58.7 13.5 340 7.6 101170 89
2008-12-17 10:15 51°33.068 2°58.416 11.4 338 7.6 101170 89
2008-12-17 10:16 51°33.162 2°58.141 14.9 339 7.6 101180 89
2008-12-17 10:17 51°33.27 2°57.877 15.6 337 7.6 101170 88
2008-12-17 10:18 51°33.373 2°57.604 13.1 339 7.6 101190 89
2008-12-17 10:19 51°33.453 2°57.308 14.4 342 7.6 101170 89
2008-12-17 10:20 51°33.527 2°57.003 13.4 339 7.6 101180 90
2008-12-17 10:21 51°33.6 2°56.694 13.3 339 7.6 101180 89
2008-12-17 10:22 51°33.67 2°56.383 13 342 7.6 101180 90
2008-12-17 10:23 51°33.741 2°56.071 14.3 343 7.6 101180 89
2008-12-17 10:24 51°33.781 2°55.738 13.2 345 7.6 101160 88
2008-12-17 10:25 51°33.778 2°55.394 11.7 353 7.5 101170 88
2008-12-17 10:26 51°33.721 2°55.048 12.8 353 7.5 101190 88
2008-12-17 10:27 51°33.665 2°54.702 12.9 352 7.5 101200 89
2008-12-17 10:28 51°33.608 2°54.357 13.3 354 7.5 101210 90
2008-12-17 10:29 51°33.509 2°54.034 10.9 359 7.4 101210 89
2008-12-17 10:30 51°33.389 2°53.723 10.7 358 7.5 101200 88
2008-12-17 10:31 51°33.273 2°53.408 10.7 359 7.5 101210 89
2008-12-17 10:32 51°33.151 2°53.097 12.9 360 7.5 101210 89
2008-12-17 10:33 51°33.027 2°52.785 11.5 -999 7.5 101210 89
2008-12-17 10:34 51°32.905 2°52.473 12.6 357 7.5 101210 89
2008-12-17 10:35 51°32.778 2°52.165 12.6 358 7.5 101220 90
2008-12-17 10:36 51°32.655 2°51.856 12.4 358 7.5 101220 90
2008-12-17 10:37 51°32.531 2°51.548 11 357 7.5 101220 90
2008-12-17 10:38 51°32.405 2°51.24 10.5 357 7.4 101230 89
2008-12-17 10:39 51°32.283 2°50.931 11.1 -999 7.4 101230 90
2008-12-17 10:40 51°32.16 2°50.62 10.8 356 7.4 101220 90
2008-12-17 10:41 51°32.033 2°50.31 10.7 355 7.4 101230 89
2008-12-17 10:42 51°31.906 2°49.999 10.3 354 7.4 101240 89
2008-12-17 10:43 51°31.783 2°49.68 10.6 354 7.4 101240 90
2008-12-17 10:44 51°31.659 2°49.363 12.6 360 7.4 101250 90
2008-12-17 10:45 51°31.532 2°49.046 10.8 358 7.4 101240 89
2008-12-17 10:46 51°31.407 2°48.728 10.5 359 7.4 101250 89
2008-12-17 10:47 51°31.281 2°48.411 10.2 356 7.4 101250 89
2008-12-17 10:48 51°31.153 2°48.096 11.3 1 7.4 101250 89
2008-12-17 10:49 51°31.025 2°47.783 11.4 359 7.4 101250 88
2008-12-17 10:50 51°30.901 2°47.468 9.7 359 7.4 101250 89
2008-12-17 10:51 51°30.778 2°47.154 11.6 356 7.4 101260 89
2008-12-17 10:52 51°30.79 2°46.851 12.9 330 7.4 101260 88
2008-12-17 10:53 51°30.958 2°46.801 12.7 325 7.5 101260 88
2008-12-17 10:54 51°31.135 2°46.805 12.4 320 7.5 101250 89
2008-12-17 10:55 51°31.311 2°46.816 14.4 321 7.5 101250 88
2008-12-17 10:56 51°31.489 2°46.822 11.3 324 7.5 101260 88
2008-12-17 10:57 51°31.666 2°46.831 16.3 320 7.5 101260 88
2008-12-17 10:58 51°31.842 2°46.839 13.9 322 7.5 101250 89
2008-12-17 10:59 51°32.02 2°46.847 14.8 323 7.5 101260 90
2008-12-17 11:00 51°32.196 2°46.851 15.4 321 7.5 101260 89
2008-12-17 11:01 51°32.373 2°46.853 11.7 323 7.5 101260 90
2008-12-17 11:02 51°32.547 2°46.859 12.2 320 7.5 101270 90
2008-12-17 11:03 51°32.723 2°46.863 14.5 320 7.5 101270 89
2008-12-17 11:04 51°32.898 2°46.87 13 319 7.5 101260 90
2008-12-17 11:05 51°33.074 2°46.875 12.7 324 7.5 101250 90
2008-12-17 11:06 51°33.25 2°46.879 12.9 319 7.4 101260 89
2008-12-17 11:07 51°33.426 2°46.883 14.9 323 7.5 101270 91
2008-12-17 11:08 51°33.602 2°46.889 13.1 324 7.5 101260 90
2008-12-17 11:09 51°33.777 2°46.899 12.5 324 7.4 101260 89
2008-12-17 11:10 51°33.952 2°46.91 15.4 322 7.4 101260 89
2008-12-17 11:11 51°34.126 2°46.926 15.3 325 7.4 101270 90
2008-12-17 11:12 51°34.302 2°46.939 13 322 7.4 101260 89
2008-12-17 11:13 51°34.477 2°46.955 14.3 319 7.4 101260 89
2008-12-17 11:14 51°34.653 2°46.971 13 322 7.5 101250 90
2008-12-17 11:15 51°34.828 2°46.987 12.6 319 7.4 101250 90
2008-12-17 11:16 51°35.002 2°47.005 13.6 320 7.4 101250 90
2008-12-17 11:17 51°35.177 2°47.021 14 321 7.4 101250 90
2008-12-17 11:18 51°35.344 2°47.067 11.6 24 7.4 101250 90
2008-12-17 11:19 51°35.493 2°47.193 13.1 316 7.3 101250 89
2008-12-17 11:20 51°35.641 2°47.322 11 316 7.4 101250 89
2008-12-17 11:21 51°35.792 2°47.454 11.1 316 7.3 101240 89
2008-12-17 11:22 51°35.942 2°47.589 10.5 317 7.3 101240 89
2008-12-17 11:23 51°36.095 2°47.713 13.1 318 7.3 101250 89
2008-12-17 11:24 51°36.25 2°47.834 12.4 319 7.3 101250 90
2008-12-17 11:25 51°36.405 2°47.953 12.9 317 7.3 101240 89
2008-12-17 11:26 51°36.56 2°48.076 12.7 318 7.3 101230 90
2008-12-17 11:27 51°36.714 2°48.197 10.7 317 7.3 101240 89
2008-12-17 11:28 51°36.87 2°48.32 13.6 315 7.3 101230 89
2008-12-17 11:29 51°37.023 2°48.443 13.7 318 7.3 101240 90
2008-12-17 11:30 51°37.181 2°48.564 13.1 316 7.3 101240 90
2008-12-17 11:31 51°37.336 2°48.687 13.1 317 7.3 101230 91
2008-12-17 11:32 51°37.492 2°48.809 12.4 318 7.3 101230 90
2008-12-17 11:33 51°37.649 2°48.933 12.7 317 7.3 101240 90
2008-12-17 11:34 51°37.804 2°49.058 14.5 21 7.3 101230 90
2008-12-17 11:35 51°37.961 2°49.177 11 315 7.3 101230 89
2008-12-17 11:36 51°38.117 2°49.298 12.6 22 7.3 101230 89
2008-12-17 11:37 51°38.271 2°49.422 12.8 317 7.3 101240 90
2008-12-17 11:38 51°38.428 2°49.542 11.5 315 7.3 101230 89
2008-12-17 11:39 51°38.585 2°49.666 11.6 23 7.3 101220 90
2008-12-17 11:40 51°38.743 2°49.793 11.8 22 7.3 101220 89
2008-12-17 11:41 51°38.901 2°49.916 12.7 317 7.3 101220 89
2008-12-17 11:42 51°39.059 2°50.041 10.5 315 7.3 101230 90
2008-12-17 11:43 51°39.215 2°50.163 12.5 319 7.3 101230 90
2008-12-17 11:44 51°39.373 2°50.284 11.3 317 7.3 101230 90
2008-12-17 11:45 51°39.532 2°50.405 10.7 318 7.3 101230 89
2008-12-17 11:46 51°39.691 2°50.53 11.2 318 7.3 101240 90
2008-12-17 11:47 51°39.822 2°50.708 8.2 26 7.3 101250 90
2008-12-17 11:48 51°39.805 2°50.999 4.5 246 7.3 101260 89
2008-12-17 11:49 51°39.678 2°51.263 2.9 249 7.3 101270 89
2008-12-17 11:50 51°39.55 2°51.525 3 22 7.3 101270 89
2008-12-17 11:51 51°39.427 2°51.794 3.8 25 7.3 101270 90
2008-12-17 11:52 51°39.305 2°52.064 2.4 26 7.4 101280 90
2008-12-17 11:53 51°39.154 2°52.302 3 250 7.4 101270 90
2008-12-17 11:54 51°38.99 2°52.526 2 251 7.4 101280 90
2008-12-17 11:55 51°38.833 2°52.754 2.1 20 7.4 101280 90
2008-12-17 11:56 51°38.678 2°52.983 2.1 257 7.4 101290 90
2008-12-17 11:57 51°38.521 2°53.217 1.7 255 7.4 101290 89
2008-12-17 11:58 51°38.362 2°53.445 1.9 251 7.4 101290 90
2008-12-17 11:59 51°38.209 2°53.676 1.3 267 7.5 101300 90
2008-12-17 12:00 51°38.057 2°53.906 0.9 265 7.5 101290 90
2008-12-17 12:01 51°37.9 2°54.138 1.3 259 7.5 101300 90
2008-12-17 12:02 51°37.742 2°54.368 1.9 260 7.5 101300 90
2008-12-17 12:03 51°37.588 2°54.6 1.5 264 7.5 101300 89
2008-12-17 12:04 51°37.433 2°54.833 1.1 270 7.5 101300 90
2008-12-17 12:05 51°37.234 2°54.818 9.9 360 7.5 101290 89
2008-12-17 12:06 51°37.11 2°54.526 10.6 356 7.4 101280 90
2008-12-17 12:07 51°36.982 2°54.231 10.8 356 7.3 101280 90
2008-12-17 12:08 51°36.855 2°53.928 11.4 356 7.3 101280 90
2008-12-17 12:09 51°36.73 2°53.623 9.5 357 7.3 101290 91
2008-12-17 12:10 51°36.603 2°53.32 9.5 355 7.3 101290 91
2008-12-17 12:11 51°36.48 2°53.015 9.7 356 7.3 101290 91
2008-12-17 12:12 51°36.357 2°52.71 11.7 355 7.2 101290 90
2008-12-17 12:13 51°36.234 2°52.405 9.3 356 7.2 101290 92
2008-12-17 12:14 51°36.112 2°52.101 8.7 357 7.2 101280 90
2008-12-17 12:15 51°35.993 2°51.795 10.4 356 7.2 101290 91
2008-12-17 12:16 51°35.871 2°51.491 11.9 358 7.2 101300 91
2008-12-17 12:17 51°35.75 2°51.189 9.4 357 7.2 101290 91
2008-12-17 12:18 51°35.629 2°50.887 11.7 355 7.2 101290 92
2008-12-17 12:19 51°35.509 2°50.584 9.9 359 7.2 101280 90
2008-12-17 12:20 51°35.339 2°50.436 2.1 34 7.2 101300 90
2008-12-17 12:21 51°35.177 2°50.629 1.9 261 7.2 101310 90
2008-12-17 12:22 51°35.019 2°50.854 2.4 259 7.3 101310 90
2008-12-17 12:23 51°34.861 2°51.078 1.5 263 7.3 101310 90
2008-12-17 12:24 51°34.712 2°51.313 3 254 7.3 101310 90
2008-12-17 12:25 51°34.587 2°51.571 3.3 256 7.3 101310 89
2008-12-17 12:26 51°34.457 2°51.82 3.1 251 7.4 101310 90
2008-12-17 12:27 51°34.327 2°52.064 4.1 19 7.4 101310 91
2008-12-17 12:28 51°34.201 2°52.309 3.1 244 7.4 101300 90
2008-12-17 12:29 51°34.071 2°52.552 4.2 252 7.4 101300 89
2008-12-17 12:30 51°33.942 2°52.801 3.7 253 7.4 101300 89
2008-12-17 12:31 51°33.876 2°53.071 8.8 23 7.4 101300 89
2008-12-17 12:32 51°33.962 2°53.309 10 20 7.4 101290 89
2008-12-17 12:33 51°34.056 2°53.548 8.8 26 7.4 101300 90
2008-12-17 12:34 51°34.139 2°53.799 9.5 21 7.3 101300 90
2008-12-17 12:35 51°34.228 2°54.046 10 26 7.3 101290 90
2008-12-17 12:36 51°34.316 2°54.291 9.1 26 7.3 101290 90
2008-12-17 12:37 51°34.407 2°54.533 10.4 25 7.3 101280 90
2008-12-17 12:38 51°34.508 2°54.765 9.3 20 7.3 101280 90
2008-12-17 12:39 51°34.611 2°54.995 8.9 23 7.3 101270 90
2008-12-17 12:40 51°34.713 2°55.227 10.5 25 7.2 101270 90
2008-12-17 12:41 51°34.815 2°55.463 9.6 26 7.2 101270 91
2008-12-17 12:42 51°34.915 2°55.699 10.7 25 7.3 101270 90
2008-12-17 12:43 51°35.015 2°55.938 8.6 24 7.2 101270 91
2008-12-17 12:44 51°35.113 2°56.182 9.3 25 7.3 101270 91
2008-12-17 12:45 51°35.213 2°56.429 10.7 25 7.3 101270 91
2008-12-17 12:46 51°35.314 2°56.674 11.5 21 7.2 101270 91
2008-12-17 12:47 51°35.413 2°56.921 10.2 26 7.3 101270 91
2008-12-17 12:48 51°35.511 2°57.17 9.9 23 7.3 101270 91
2008-12-17 12:49 51°35.534 2°57.454 6.4 20 7.3 101280 92
2008-12-17 12:50 51°35.415 2°57.716 2.5 253 7.3 101280 91
2008-12-17 12:51 51°35.237 2°57.901 0.3 19 7.3 101290 91
2008-12-17 12:52 51°35.037 2°58.04 0.4 352 7.3 101290 91
2008-12-17 12:53 51°34.836 2°58.173 0.2 12 7.4 101290 91
2008-12-17 12:54 51°34.637 2°58.307 0.3 11 7.4 101290 91
2008-12-17 12:55 51°34.433 2°58.441 1.1 339 7.5 101290 91
2008-12-17 12:56 51°34.231 2°58.578 0.8 346 7.6 101290 91
2008-12-17 12:57 51°34.027 2°58.715 0.7 341 7.7 101290 91
2008-12-17 12:58 51°33.824 2°58.862 0.7 332 7.8 101300 90
2008-12-17 12:59 51°33.62 2°59.009 0.5 330 8 101300 90
2008-12-17 13:00 51°33.419 2°59.158 0.5 357 8.2 101300 89
2008-12-17 13:01 51°33.214 2°59.304 0.3 2 8.3 101300 88
2008-12-17 13:02 51°33.011 2°59.458 0.8 358 8.5 101300 88
2008-12-17 13:03 51°32.815 2°59.614 0.6 348 8.7 101300 87
2008-12-17 13:04 51°32.62 2°59.765 0.9 338 8.8 101300 86
2008-12-17 13:05 51°32.425 2°59.913 0.8 2 8.8 101290 85
2008-12-17 13:06 51°32.229 3°0.064 1.6 6 8.8 101300 85
2008-12-17 13:07 51°32.012 3°0.098 4.9 6 8.5 101290 85
2008-12-17 13:08 51°31.803 2°59.973 6.3 4 8.1 101290 86
2008-12-17 13:09 51°31.599 2°59.824 5.9 2 7.7 101300 89
2008-12-17 13:10 51°31.39 2°59.689 6.5 1 7.5 101290 90
2008-12-17 13:11 51°31.182 2°59.558 6.4 -999 7.3 101290 92
2008-12-17 13:12 51°30.973 2°59.424 6.1 1 7.2 101290 91
2008-12-17 13:13 51°30.766 2°59.289 6.6 3 7.2 101290 92
2008-12-17 13:14 51°30.563 2°59.161 5.7 3 7.1 101290 92
2008-12-17 13:15 51°30.361 2°59.028 5.5 7 7.1 101290 92
2008-12-17 13:16 51°30.158 2°58.893 5.3 3 7.1 101290 92
2008-12-17 13:17 51°29.952 2°58.766 6 360 7.1 101290 92
2008-12-17 13:18 51°29.744 2°58.645 5.1 5 7 101290 92
2008-12-17 13:19 51°29.535 2°58.528 6 4 7 101300 91
2008-12-17 13:20 51°29.329 2°58.41 6.1 2 7 101300 91
2008-12-17 13:21 51°29.127 2°58.288 6 3 7 101310 92
2008-12-17 13:22 51°28.918 2°58.177 6.1 4 7 101300 92
2008-12-17 13:23 51°28.71 2°58.064 6.8 3 7 101300 92
2008-12-17 13:24 51°28.503 2°57.951 5 6 7 101310 93
2008-12-17 13:25 51°28.296 2°57.833 6.8 6 6.9 101310 94
2008-12-17 13:26 51°28.089 2°57.702 6.9 5 6.9 101310 93
2008-12-17 13:27 51°27.882 2°57.575 7.3 7 6.9 101300 93
2008-12-17 13:28 51°27.677 2°57.455 6 5 6.9 101310 93
2008-12-17 13:29 51°27.471 2°57.332 6.5 5 6.9 101310 93
2008-12-17 13:30 51°27.263 2°57.205 7.3 6 6.8 101320 93
2008-12-17 13:31 51°27.053 2°57.083 7.4 5 6.8 101320 94
2008-12-17 13:32 51°26.842 2°56.963 6.5 6 6.8 101320 94
2008-12-17 13:33 51°26.631 2°56.846 6.3 6 6.8 101320 93
2008-12-17 13:34 51°26.42 2°56.729 5.4 5 6.8 101320 93
2008-12-17 13:35 51°26.208 2°56.624 5.6 4 6.8 101330 94
2008-12-17 13:36 51°25.995 2°56.531 6.2 6 6.8 101330 93
2008-12-17 13:37 51°25.782 2°56.445 5.4 1 6.8 101330 93
2008-12-17 13:38 51°25.569 2°56.362 5.2 1 6.8 101330 92
2008-12-17 13:39 51°25.358 2°56.274 6.8 2 6.8 101340 93
2008-12-17 13:40 51°25.15 2°56.183 5.5 358 6.7 101340 93
2008-12-17 13:41 51°24.942 2°56.097 6.4 5 6.7 101340 93
2008-12-17 13:42 51°24.738 2°56 5.8 6 6.7 101340 93
2008-12-17 13:43 51°24.534 2°55.908 5.7 4 6.7 101340 93
2008-12-17 13:44 51°24.33 2°55.811 5.7 -999 6.7 101340 93
2008-12-17 13:45 51°24.126 2°55.712 5.3 1 6.7 101340 94
2008-12-17 13:46 51°23.922 2°55.617 5.7 4 6.6 101340 95
2008-12-17 13:47 51°23.716 2°55.522 5.8 1 6.6 101340 94
2008-12-17 13:48 51°23.51 2°55.43 5.5 3 6.6 101340 94
2008-12-17 13:49 51°23.305 2°55.334 5.3 1 6.6 101340 94
2008-12-17 13:50 51°23.101 2°55.245 5.9 3 6.6 101340 94
2008-12-17 13:51 51°22.899 2°55.158 5.7 1 6.6 101340 93
2008-12-17 13:52 51°22.697 2°55.073 5.3 4 6.6 101350 94
2008-12-17 13:53 51°22.498 2°54.988 5.1 3 6.6 101360 95
2008-12-17 13:54 51°22.302 2°54.903 5.1 1 6.6 101350 93
2008-12-17 13:55 51°22.108 2°54.821 6.1 2 6.6 101350 94
2008-12-17 13:56 51°21.915 2°54.743 5.4 2 6.6 101350 94
2008-12-17 13:57 51°21.723 2°54.663 6.3 1 6.5 101350 95
2008-12-17 13:58 51°21.534 2°54.571 6 3 6.5 101350 94
2008-12-17 13:59 51°21.343 2°54.48 5.9 4 6.5 101350 94
2008-12-17 14:00 51°21.152 2°54.391 5.3 4 6.5 101360 93
2008-12-17 14:01 51°20.962 2°54.302 5.9 6 6.5 101350 93
2008-12-17 14:02 51°20.771 2°54.216 4.9 6 6.5 101360 93
2008-12-17 14:03 51°20.58 2°54.128 5.2 5 6.5 101360 93
2008-12-17 14:04 51°20.391 2°54.042 5 5 6.5 101350 93
2008-12-17 14:05 51°20.203 2°53.955 4.8 359 6.5 101350 93
2008-12-17 14:06 51°20.015 2°53.873 5.2 3 6.4 101350 94
2008-12-17 14:07 51°19.826 2°53.79 5.1 4 6.4 101360 95
2008-12-17 14:08 51°19.636 2°53.706 5.5 6 6.4 101360 94
2008-12-17 14:09 51°19.452 2°53.6 6.4 2 6.4 101360 94
2008-12-17 14:10 51°19.28 2°53.46 6.6 2 6.4 101360 94
2008-12-17 14:11 51°19.107 2°53.322 5.4 4 6.4 101360 95
2008-12-17 14:12 51°18.936 2°53.183 5.8 5 6.4 101360 94
2008-12-17 14:13 51°18.765 2°53.048 6.1 6 6.4 101360 94
2008-12-17 14:14 51°18.594 2°52.917 5.5 8 6.4 101360 93
2008-12-17 14:15 51°18.423 2°52.789 5.2 3 6.5 101360 93
2008-12-17 14:16 51°18.247 2°52.678 5.5 4 6.5 101360 94
2008-12-17 14:17 51°18.069 2°52.573 5.4 6 6.5 101370 94
2008-12-17 14:18 51°17.881 2°52.496 4.8 5 6.5 101360 93
2008-12-17 14:19 51°17.69 2°52.43 5 7 6.5 101360 94
2008-12-17 14:20 51°17.499 2°52.371 4.9 6 6.5 101370 93
2008-12-17 14:21 51°17.306 2°52.316 3.8 9 6.5 101370 94
2008-12-17 14:22 51°17.11 2°52.385 2.7 4 6.5 101380 94
2008-12-17 14:23 51°16.915 2°52.472 2.6 6 6.5 101380 93
2008-12-17 14:24 51°16.722 2°52.565 2.7 10 6.5 101380 94
2008-12-17 14:25 51°16.525 2°52.655 2.4 4 6.4 101380 94
2008-12-17 14:26 51°16.33 2°52.748 2.2 1 6.4 101380 94
2008-12-17 14:27 51°16.145 2°52.863 2 7 6.4 101380 94
2008-12-17 14:28 51°15.961 2°52.98 1.4 -999 6.4 101390 94
2008-12-17 14:29 51°15.776 2°53.1 1.9 360 6.4 101390 94
2008-12-17 14:30 51°15.593 2°53.222 1.8 355 6.4 101380 94
2008-12-17 14:31 51°15.411 2°53.347 1.9 358 6.4 101380 94
2008-12-17 14:32 51°15.229 2°53.467 1.3 12 6.5 101380 94
2008-12-17 14:33 51°15.05 2°53.591 0.7 349 6.5 101390 94
2008-12-17 14:34 51°14.943 2°53.78 3.7 258 6.5 101390 94
2008-12-17 14:35 51°14.835 2°54.056 2.9 249 6.5 101400 94
2008-12-17 14:36 51°14.723 2°54.344 3.5 253 6.5 101390 94
2008-12-17 14:37 51°14.612 2°54.632 2.5 254 6.5 101400 93
2008-12-17 14:38 51°14.475 2°54.889 1.8 246 6.5 101400 93
2008-12-17 14:39 51°14.338 2°55.138 0.2 258 6.5 101400 93
2008-12-17 14:40 51°14.219 2°55.304 1.8 26 6.5 101400 93
2008-12-17 14:41 51°14.141 2°55.397 3.6 26 6.6 101400 93
2008-12-17 14:42 51°14.08 2°55.45 4.2 24 6.6 101400 93